sat.trackr.live / text

‹ back to catalog

TRANSPORTER-16 OBJECT AR

NORAD 68455 · 2026-067AR

PAYLOAD ACTIVE UNKNOWN

§ Identity

Operator
Country
TBD
Launch date
2026-03-30
Launch site
AFWTR
Launch vehicle
Mass (kg)
RCS (m²)

External: N2YO · Heavens-Above · Gunter

§ Orbital elements

Epoch: 2026-05-24T20:17:35.933856Z

Period
94.92 min
Inclination
97.4562°
Eccentricity
0.0007011
Mean motion
15.17141736 rev/d
Perigee alt
509.7 km
Apogee alt
519.3 km
Semi-major
6,892.6 km
B*
2.1179e-4
RAAN
103.5898°
Arg perigee
131.8294°
Mean anomaly
228.3539°
Rev number
839

§ Raw data

TRANSPORTER-16 OBJECT AR1 68455U 26067AR  26144.84555479  .00004137  00000+0  21179-3 0  99902 68455  97.4562 103.5898 0007011 131.8294 228.3539 15.17141736  8392

JSON: /api/v1/satellites/68455 · /tle

For live sub-satellite position, see the globe view (requires WebGL).

§ Visibility from observer

Set your observer location to see the next 7 days of passes ≥ 10°. The values pass through the URL so the page stays shareable.

No JS? Fill the form by hand. The geolocation button needs JavaScript.